Milan, NH

10:44 PM EDT on September 30, 2016 (GMT -0400)
Berlin Municipal

Weather History for KBML - January, 2014

Change the Weather History Date:

Thursday, January 2, 2014

  Actual Average Record
Temperature  
Mean Temperature -1 °F -  
Max Temperature 3 °F 25 °F 42 °F (2011)
Min Temperature -5 °F 5 °F -15 °F (2009)
Degree Days  
Heating Degree Days 66    
Moisture  
Dew Point -8 °F    
Average Humidity 73    
Maximum Humidity 78    
Minimum Humidity 65    
Precipitation  
Precipitation 0.06 in - - ()
Sea Level Pressure  
Sea Level Pressure 30.16 in    
Wind  
Wind Speed 6 mph (NNW)    
Max Wind Speed 13 mph    
Max Gust Speed -    
Visibility 3 miles    
Events Snow    
Averages and records for this station are not official NWS values.
T = Trace of Precipitation, MM = Missing Value Source: NWS Daily Summary

Daily Weather History Graph

Daily Weather History Graph

Search for Another Location

Airport or City:

Trip Planner

Search our weather history database for the weather conditions in past years. The results will help you decide how hot, cold, wet, or windy it might be!

Date:

Astronomy

Jan. 02, 2014 Rise Set
Actual Time 7:21 AM EST 4:16 PM EST
Civil Twilight 6:48 AM EST 4:49 PM EST
Nautical Twilight 6:11 AM EST 5:26 PM EST
Astronomical Twilight 5:36 AM EST 6:01 PM EST
Moon 7:55 AM EST (1/2) 6:14 PM EST (1/2)
Length of Visible Light 10h 01m
Length of Day
8h 54m
New Moon, 2% of the Moon is Illuminated
Jan 2
New Moon
Jan 7
First Quarter
Jan 15
Full
Jan 24
Last Quarter
Jan 30
New

Hourly Weather History & Observations

Time (EST) Temp. Windchill Dew Point Humidity Pressure Visibility Wind Dir Wind Speed Gust Speed Precip Events Conditions
12:52 AM -2.9 °F -17.7 °F -11.0 °F 68% 30.41 in 10.0 mi North 8.1 mph - N/A   Overcast
1:52 AM -2.9 °F -13.3 °F -11.9 °F 65% 30.41 in 10.0 mi North 4.6 mph - N/A   Overcast
2:52 AM -4.0 °F -12.4 °F -11.0 °F 72% 30.41 in 10.0 mi NNW 3.5 mph - N/A   Clear
3:52 AM -4.0 °F - -11.0 °F 72% 30.39 in 10.0 mi Calm Calm - N/A   Clear
4:52 AM -5.1 °F -15.8 °F -11.9 °F 72% 30.39 in 10.0 mi NNW 4.6 mph - N/A   Overcast
5:52 AM -5.1 °F -15.8 °F -13.0 °F 69% 30.40 in 10.0 mi NNW 4.6 mph - N/A   Overcast
6:52 AM -5.1 °F -17.6 °F -13.0 °F 69% 30.40 in 10.0 mi NNW 5.8 mph - N/A   Overcast
7:52 AM -5.1 °F -15.8 °F -11.9 °F 72% 30.40 in 3.0 mi NNW 4.6 mph - 0.00 in Snow Light Snow
8:08 AM -5.1 °F -17.6 °F -11.9 °F 72% 30.29 in 2.0 mi North 5.8 mph - 0.00 in Snow Light Snow
8:31 AM -5.1 °F -17.6 °F -11.9 °F 72% 30.29 in 4.0 mi NNW 5.8 mph - 0.00 in Snow Light Snow
8:52 AM -4.0 °F -14.6 °F -11.0 °F 72% 30.40 in 4.0 mi NNW 4.6 mph - 0.00 in Snow Light Snow
9:01 AM -4.0 °F -14.6 °F -11.0 °F 72% 30.29 in 1.8 mi NNW 4.6 mph - 0.00 in Snow Light Snow
9:13 AM -4.0 °F -17.8 °F -11.0 °F 72% 30.29 in 1.0 mi North 6.9 mph - 0.00 in Snow Light Snow
9:25 AM -2.9 °F -13.3 °F -9.9 °F 72% 30.29 in 2.0 mi NW 4.6 mph - 0.00 in Snow Light Snow
9:52 AM -2.9 °F -15.0 °F -9.9 °F 72% 30.39 in 2.5 mi NNW 5.8 mph - 0.00 in Snow Light Snow
10:04 AM -2.9 °F -15.0 °F -9.9 °F 72% 30.27 in 1.5 mi NNW 5.8 mph - 0.00 in Snow Light Snow
10:38 AM -0.9 °F -11.0 °F -9.0 °F 69% 30.25 in 2.5 mi North 4.6 mph - 0.00 in Snow Light Snow
10:52 AM -0.9 °F -8.9 °F -9.0 °F 69% 30.35 in 3.0 mi NW 3.5 mph - 0.00 in Snow Light Snow
11:17 AM -0.0 °F -7.9 °F -8.0 °F 69% 30.22 in 2.0 mi NNW 3.5 mph - 0.00 in Snow Light Snow
11:48 AM -0.4 °F -10.4 °F -7.6 °F 72% 30.20 in 1.8 mi WNW 4.6 mph - 0.01 in Snow Light Snow
11:52 AM -0.0 °F -7.9 °F -8.0 °F 69% 30.30 in 1.8 mi Variable 3.5 mph - 0.01 in Snow Light Snow
12:03 PM -0.0 °F -7.9 °F -7.1 °F 72% 30.19 in 1.0 mi Variable 3.5 mph - 0.00 in Snow Light Snow
12:52 PM 1.0 °F -8.7 °F -6.0 °F 72% 30.25 in 1.0 mi NNW 4.6 mph - 0.00 in Snow Light Snow
1:03 PM 1.9 °F -7.6 °F -6.0 °F 69% 30.14 in 2.0 mi NNW 4.6 mph - 0.00 in Snow Light Snow
1:12 PM 1.9 °F -9.2 °F -6.0 °F 69% 30.14 in 3.0 mi NNW 5.8 mph - 0.00 in Snow Light Snow
1:21 PM 1.9 °F -10.6 °F -6.0 °F 69% 30.14 in 1.8 mi NNW 6.9 mph - 0.00 in Snow Light Snow
1:31 PM 1.9 °F -7.6 °F -5.1 °F 72% 30.13 in 1.0 mi NNW 4.6 mph - 0.00 in Snow Light Snow
1:44 PM 1.9 °F -7.6 °F -5.1 °F 72% 30.12 in 2.0 mi NNW 4.6 mph - 0.00 in Snow Light Snow
1:52 PM 1.9 °F -9.2 °F -5.1 °F 72% 30.22 in 2.5 mi Variable 5.8 mph - 0.00 in Snow Light Snow
2:01 PM 1.9 °F -10.6 °F -5.1 °F 72% 30.11 in 1.5 mi NNW 6.9 mph - 0.00 in Snow Light Snow
2:08 PM 1.9 °F -9.2 °F -5.1 °F 72% 30.11 in 1.2 mi NNW 5.8 mph - 0.00 in Snow Light Snow
2:37 PM 3.0 °F -8.0 °F -4.0 °F 73% 30.11 in 1.5 mi North 5.8 mph - 0.01 in Snow Light Snow
2:52 PM 3.0 °F -6.4 °F -4.0 °F 73% 30.20 in 1.5 mi North 4.6 mph - 0.01 in Snow Light Snow
2:56 PM 3.0 °F -6.4 °F -4.0 °F 73% 30.10 in 1.2 mi North 4.6 mph - 0.00 in Snow Light Snow
3:13 PM 3.0 °F -6.4 °F -4.0 °F 73% 30.10 in 1.5 mi NNW 4.6 mph - 0.00 in Snow Light Snow
3:20 PM 3.0 °F -8.0 °F -2.9 °F 76% 30.09 in 2.5 mi NNW 5.8 mph - 0.00 in Snow Light Snow
3:28 PM 3.0 °F -6.4 °F -2.9 °F 76% 30.08 in 1.2 mi North 4.6 mph - 0.00 in Snow Light Snow
3:50 PM 3.2 °F -4.2 °F -2.2 °F 78% 30.07 in 2.0 mi Variable 3.5 mph - 0.00 in Snow Light Snow
3:52 PM 3.0 °F -4.4 °F -2.9 °F 76% 30.17 in 2.0 mi North 3.5 mph - 0.00 in Snow Light Snow
4:05 PM 3.0 °F -6.4 °F -2.9 °F 76% 30.07 in 1.5 mi NNW 4.6 mph - 0.01 in Snow Light Snow
4:52 PM 3.0 °F -6.4 °F -2.9 °F 76% 30.16 in 1.5 mi North 4.6 mph - 0.01 in Snow Light Snow
5:01 PM 3.0 °F -4.4 °F -2.9 °F 76% 30.05 in 2.0 mi NNW 3.5 mph - 0.00 in Snow Light Snow
5:38 PM 1.9 °F -10.6 °F -4.0 °F 76% 30.06 in 1.8 mi North 6.9 mph - 0.01 in Snow Light Snow
5:45 PM 1.9 °F -10.6 °F -4.0 °F 76% 30.06 in 2.5 mi North 6.9 mph - 0.01 in Snow Light Snow
5:52 PM 1.9 °F -10.6 °F -4.0 °F 76% 30.16 in 2.0 mi North 6.9 mph - 0.01 in Snow Light Snow
5:59 PM 1.9 °F -10.6 °F -4.0 °F 76% 30.05 in 2.5 mi North 6.9 mph - 0.00 in Snow Light Snow
6:11 PM 1.9 °F -7.6 °F -4.0 °F 76% 30.05 in 3.0 mi North 4.6 mph - 0.00 in Snow Light Snow
6:32 PM 1.0 °F -10.3 °F -5.1 °F 75% 30.05 in 2.5 mi NNW 5.8 mph - 0.00 in Snow Light Snow
6:52 PM 1.0 °F -11.7 °F -5.1 °F 75% 30.15 in 2.0 mi North 6.9 mph - 0.00 in Snow Light Snow
7:02 PM -0.0 °F -13.0 °F -6.0 °F 76% 30.03 in 1.5 mi North 6.9 mph - 0.00 in Snow Light Snow
7:45 PM -0.9 °F -15.3 °F -7.1 °F 75% 30.02 in 1.2 mi NNW 8.1 mph - 0.01 in Snow Light Snow
7:52 PM -0.9 °F -14.1 °F -7.1 °F 75% 30.12 in 1.2 mi NNW 6.9 mph - 0.01 in Snow Light Snow
8:00 PM -0.9 °F -15.3 °F -7.1 °F 75% 30.01 in 1.5 mi NNW 8.1 mph - 0.00 in Snow Light Snow
8:20 PM -0.9 °F -14.1 °F -8.0 °F 72% 30.01 in 2.0 mi NNW 6.9 mph - 0.00 in Snow Light Snow
8:52 PM -2.0 °F -16.6 °F -8.0 °F 76% 30.11 in 1.8 mi NNW 8.1 mph - 0.00 in Snow Light Snow
9:33 PM -2.0 °F -16.6 °F -8.0 °F 76% 29.99 in 2.0 mi NNW 8.1 mph - 0.00 in Snow Light Snow
9:52 PM -2.9 °F -19.8 °F -9.0 °F 75% 30.09 in 2.5 mi NNW 10.4 mph - 0.00 in Snow Light Snow
10:28 PM -2.9 °F -17.7 °F -9.0 °F 75% 29.98 in 2.5 mi NNW 8.1 mph - 0.01 in Snow Light Snow
10:37 PM -2.9 °F -18.8 °F -9.9 °F 72% 29.98 in 3.0 mi NNW 9.2 mph - 0.01 in Snow Light Snow
10:50 PM -4.0 °F -21.2 °F -9.4 °F 78% 29.96 in 2.0 mi North 10.4 mph - 0.01 in Snow Light Snow
10:52 PM -4.0 °F -21.2 °F -9.9 °F 76% 30.06 in 2.0 mi North 10.4 mph - 0.01 in Snow Light Snow
10:55 PM -4.0 °F -23.0 °F -9.9 °F 76% 29.96 in 1.8 mi North 12.7 mph - 0.00 in Snow Light Snow
11:11 PM -4.0 °F -22.1 °F -11.0 °F 72% 29.95 in 2.0 mi North 11.5 mph - 0.00 in Snow Light Snow
11:18 PM -4.0 °F -21.2 °F -11.0 °F 72% 29.95 in 2.5 mi North 10.4 mph - 0.00 in Snow Light Snow
11:39 PM -4.0 °F -21.2 °F -11.0 °F 72% 29.92 in 1.8 mi North 10.4 mph - 0.00 in Snow Light Snow
11:52 PM -5.1 °F -20.4 °F -11.0 °F 76% 30.02 in 1.5 mi North 8.1 mph - 0.00 in Snow Light Snow